Wind_Speed
8 8 8 9 10 12 13 14 15 17 18 19 18 16 15 14 13 10 7 5 4 5 8 13 16 18 20 22 22 22 19 18 15 13 12 10 9 7 6 5 4 2 2 1
8 8 9 9 10 11 13 14 16 17 17 17 17 15 14 13 13 11 7 5 3 4 6 10 13 15 18 20 19 18 17 16 14 14 12 10 9 8 6 5 4 3 2 2
9 9 10 10 10 11 12 13 15 16 16 16 16 15 14 13 13 12 8 5 4 2 4 8 11 12 15 16 17 17 17 16 15 13 12 11 9 8 7 6 5 4 3 2
10 11 10 10 10 11 11 13 14 15 14 15 14 14 14 12 12 12 9 6 4 2 2 6 9 11 13 16 16 16 17 16 15 13 12 11 9 8 7 6 5 4 4 3
11 11 10 10 11 11 11 13 13 14 13 12 13 12 13 12 12 11 10 7 4 1 2 4 7 10 12 13 14 15 16 15 14 13 11 10 9 8 7 6 6 5 4 3
12 12 11 11 11 12 12 12 13 13 12 11 11 10 10 10 11 10 9 7 5 2 1 4 6 9 10 11 13 14 14 13 12 12 11 10 9 8 7 7 6 5 5 4
12 13 12 11 12 12 12 12 12 11 11 11 12 10 9 8 9 9 8 7 5 3 1 3 5 7 9 10 12 13 13 12 12 11 11 10 9 8 8 7 7 6 6 6
14 13 14 13 12 13 12 12 10 10 10 11 12 10 9 9 8 7 7 6 5 4 2 1 4 5 7 10 11 13 13 12 11 11 11 10 10 9 9 9 8 8 8 9
14 14 16 15 14 14 14 13 12 12 11 10 10 12 11 10 8 7 6 6 4 3 1 1 3 4 6 7 10 12 13 12 11 11 11 11 11 11 11 10 10 10 11 12
16 17 17 16 16 16 14 13 13 11 10 9 10 11 12 11 9 8 6 5 4 4 2 2 3 4 6 7 9 11 11 11 11 11 11 12 12 13 13 13 13 13 14 15
18 17 17 17 16 16 14 13 12 11 11 9 9 11 14 12 11 10 8 7 6 5 4 3 4 6 7 8 9 10 11 11 12 12 13 14 14 15 15 16 16 17 18 18
18 18 18 19 17 15 14 13 12 11 11 10 9 12 13 12 11 11 10 9 8 7 7 6 6 7 8 9 11 12 13 13 14 15 15 16 17 17 18 19 19 20 21 22
19 19 19 19 18 16 14 13 12 12 11 11 9 12 14 12 12 12 12 12 11 10 10 10 10 9 10 11 12 13 15 16 16 17 18 19 19 20 21 22 22 23 24 25
20 20 18 17 17 16 15 14 13 12 11 11 11 12 13 13 12 13 13 13 13 13 12 12 12 12 13 14 14 15 16 17 18 19 20 21 22 23 24 24 25 26 26 27
20 19 18 17 18 17 15 14 13 12 11 11 11 13 13 14 14 14 14 15 15 15 14 14 14 15 16 16 17 17 18 18 20 21 22 24 25 25 26 27 28 28 29 30
20 20 19 18 18 17 16 14 13 13 13 13 13 14 14 14 15 15 16 17 17 17 16 16 17 18 19 19 20 20 21 21 22 23 24 25 26 27 28 29 29 30 31 32
22 19 19 17 18 18 17 15 15 15 15 14 15 16 15 15 15 17 17 18 19 20 20 20 20 21 22 22 23 24 24 24 24 25 26 27 28 29 30 31 31 32 33 34
22 20 19 19 19 19 19 17 17 17 17 17 17 17 17 16 17 18 19 20 21 23 24 24 25 25 25 25 26 27 28 28 28 28 29 30 31 32 33 33 34 35 36 36
23 22 22 21 20 20 21 19 18 18 18 18 18 18 17 18 19 19 20 21 23 24 26 27 28 28 28 28 29 30 31 32 32 33 33 33 34 35 36 36 37 38 39 39
24 23 24 22 21 20 21 20 19 19 19 19 19 19 19 19 20 19 20 21 23 24 26 28 29 29 30 30 31 33 34 34 34 35 36 36 36 37 38 39 40 41 42 42
25 25 24 22 21 21 22 20 19 20 20 20 20 20 20 21 21 21 21 22 24 25 26 28 29 30 31 32 32 33 34 35 35 35 36 37 37 39 40 41 42 43 44 44
25 25 24 23 22 23 22 21 21 21 21 20 20 21 21 22 22 23 23 24 24 25 26 27 29 31 33 33 32 33 34 35 36 36 37 39 39 40 42 43 44 44 45 47
26 25 24 23 23 24 23 23 22 22 21 21 21 22 22 23 24 24 24 25 25 26 27 28 29 31 32 32 32 33 33 34 36 38 39 40 40 42 43 44 45 46 47 49
24 22 23 22 23 24 24 24 23 22 22 22 23 23 24 24 25 25 25 26 26 27 28 29 29 30 31 31 31 33 34 35 36 37 38 39 41 42 44 45 47 48 50 51
21 21 22 23 24 23 22 22 22 23 23 23 24 24 25 25 26 26 26 27 27 28 28 29 29 30 31 32 33 34 35 36 38 39 40 41 42 44 45 47 48 50 52 54
20 21 22 22 22 23 22 22 23 23 24 24 25 25 26 27 27 27 27 28 28 29 30 30 31 32 32 33 35 36 37 38 39 41 42 43 44 46 48 49 51 53 56 58
Wind_Direction
305 307 312 316 322 326 328 331 332 332 334 339 344 348 348 348 348 342 332 309 263 229 216 210 205 207 207 206 207 209 209 209 205 204 204 204 202 198 197 200 207 213 212 218
288 291 297 307 318 326 329 332 331 330 332 339 345 349 354 354 356 351 344 330 289 243 227 212 208 207 210 208 206 204 198 200 200 202 202 201 198 196 197 198 198 198 198 192
272 274 285 296 310 322 326 329 329 330 332 338 345 352 356 359 0 359 353 342 326 282 221 207 200 197 199 198 196 195 193 196 199 200 202 200 197 196 196 195 198 201 195 188
259 269 277 290 303 314 319 323 329 332 336 339 345 348 350 355 359 1 360 347 331 308 226 193 191 195 193 188 190 195 195 197 199 198 198 197 196 195 194 197 200 200 199 204
250 258 269 284 299 305 311 321 329 334 333 335 338 347 347 353 356 0 5 3 360 354 175 177 178 185 187 190 194 193 194 196 197 196 195 195 197 197 197 202 204 206 213 221
245 252 264 280 294 302 308 319 329 337 340 336 329 340 341 350 356 358 5 13 19 31 140 172 178 180 186 188 191 189 191 193 195 197 198 199 201 203 206 210 213 218 228 239
243 252 264 280 291 298 308 319 335 336 333 318 314 322 327 336 348 355 3 13 20 23 65 158 174 186 194 197 195 196 196 195 197 201 205 205 209 212 216 221 226 232 242 251
240 250 263 274 281 289 301 308 308 308 308 310 312 309 312 322 335 344 350 3 11 15 30 145 171 183 198 204 203 202 202 205 206 209 212 215 220 224 230 235 240 247 253 259
239 246 256 266 274 284 293 296 296 302 310 316 305 301 301 306 314 326 336 345 349 360 7 207 202 205 208 208 209 208 212 214 214 216 221 227 232 237 241 245 249 256 261 265
238 246 255 264 271 282 286 290 293 296 296 299 301 302 291 293 299 306 309 315 323 330 333 262 228 222 222 220 217 213 216 219 221 225 231 237 243 247 250 253 256 261 266 269
243 249 256 263 271 281 285 286 285 287 283 289 289 287 281 284 286 289 291 291 291 293 289 290 262 242 236 233 230 228 227 229 232 236 241 245 250 254 256 259 262 265 268 271
243 251 256 265 269 272 275 280 282 284 286 290 286 284 280 278 278 279 279 280 280 277 277 277 277 265 254 247 242 238 238 238 240 244 248 252 255 258 260 263 266 268 271 273
245 254 261 267 271 270 269 275 279 277 279 285 283 281 279 274 271 270 272 274 275 271 272 274 274 271 265 259 254 250 247 247 248 251 254 258 260 262 265 268 269 272 274 275
249 254 254 255 260 267 272 269 271 274 277 282 275 267 270 268 269 269 270 271 270 268 268 270 271 271 270 266 263 260 257 257 258 259 261 263 265 268 270 271 273 275 277 278
249 251 252 250 254 262 267 266 263 264 272 273 268 263 262 263 265 266 268 268 266 265 265 268 269 270 271 268 265 263 263 263 263 263 265 266 268 270 272 273 275 277 279 280
246 250 251 253 254 257 260 265 264 262 268 270 265 263 261 263 264 264 266 266 266 264 264 266 268 270 271 270 267 266 266 267 267 266 266 268 270 272 274 275 277 279 280 281
243 246 249 252 255 256 259 262 260 261 264 266 265 265 262 262 263 264 264 263 261 261 262 263 266 269 269 269 267 266 267 267 268 269 270 271 272 274 276 278 279 280 281 282
241 247 250 253 255 256 259 259 259 260 262 265 268 266 264 266 265 263 263 263 262 259 260 262 264 266 267 268 267 268 267 266 268 269 271 272 274 276 277 278 279 280 281 283
241 247 248 249 255 259 259 257 257 261 264 266 266 266 265 267 267 265 265 264 263 261 259 260 262 262 263 265 267 269 269 267 267 269 270 272 274 276 277 279 281 281 282 283
243 246 245 245 249 254 256 257 259 263 264 265 265 266 266 268 269 268 268 267 264 264 262 262 263 261 262 263 265 267 268 267 268 270 270 273 275 276 278 281 283 283 283 284
240 242 241 245 249 252 255 257 260 263 263 264 264 265 265 266 267 268 269 270 267 265 265 264 263 263 264 264 264 267 268 269 271 272 273 275 277 278 279 281 282 283 284 284
237 239 240 242 245 251 256 260 260 261 263 265 266 265 265 266 268 269 269 269 269 268 268 268 268 266 266 266 267 270 272 272 274 275 275 276 278 279 280 281 282 283 284 284
236 234 235 240 246 251 256 259 261 262 263 266 268 268 267 267 269 270 270 271 270 270 269 270 272 272 270 270 273 276 275 277 277 277 277 277 279 282 283 284 285 285 285 285
236 235 239 246 251 253 256 259 260 261 264 268 268 269 270 270 269 269 271 273 274 273 273 274 274 275 276 277 278 279 280 280 281 282 284 285 284 284 285 286 286 286 286 287
235 238 244 249 253 256 258 260 261 264 267 270 270 269 269 271 271 271 272 273 275 277 277 277 277 278 280 281 282 283 284 284 285 286 287 287 287 287 287 288 288 288 289 289
244 246 249 253 257 260 262 263 266 268 269 271 271 272 272 273 274 274 274 275 276 278 279 280 281 282 283 284 285 286 286 287 288 288 288 289 289 289 290 290 290 290 290 290
Height
5896 5897 5896 5895 5893 5891 5889 5886 5883 5880 5876 5873 5869 5865 5862 5857 5854 5850 5848 5846 5845 5845 5845 5846 5848 5850 5852 5854 5858 5861 5865 5868 5870 5873 5875 5877 5879 5880 5880 5881 5881 5881 5882 5881
5895 5895 5894 5893 5891 5890 5887 5885 5882 5879 5875 5871 5868 5865 5861 5857 5854 5850 5848 5846 5845 5844 5844 5844 5846 5848 5850 5853 5856 5860 5863 5866 5869 5871 5874 5876 5877 5878 5879 5880 5880 5880 5881 5881
5892 5893 5891 5891 5889 5888 5886 5884 5881 5877 5873 5870 5868 5864 5861 5858 5854 5851 5848 5847 5846 5845 5844 5845 5846 5847 5849 5852 5855 5858 5862 5865 5868 5870 5873 5874 5876 5877 5878 5879 5879 5880 5880 5880
5889 5889 5889 5888 5888 5886 5885 5882 5879 5876 5872 5870 5868 5865 5861 5858 5855 5852 5850 5848 5846 5845 5845 5845 5846 5847 5849 5851 5855 5857 5860 5864 5866 5869 5871 5873 5875 5876 5877 5878 5878 5879 5879 5879
5886 5887 5886 5886 5886 5884 5882 5880 5877 5874 5871 5869 5867 5865 5863 5858 5856 5853 5851 5849 5847 5846 5845 5846 5846 5848 5849 5852 5854 5857 5859 5862 5865 5868 5870 5872 5873 5875 5876 5877 5877 5878 5878 5878
5883 5883 5884 5883 5883 5881 5880 5878 5876 5873 5871 5870 5867 5865 5863 5859 5857 5854 5852 5849 5848 5847 5847 5847 5847 5849 5850 5852 5854 5857 5859 5862 5864 5867 5869 5871 5872 5874 5875 5875 5876 5876 5876 5876
5880 5881 5881 5881 5880 5879 5878 5877 5877 5875 5873 5871 5866 5864 5863 5859 5857 5855 5852 5850 5849 5849 5848 5848 5848 5849 5851 5853 5854 5857 5859 5861 5864 5866 5868 5869 5871 5872 5873 5874 5874 5874 5875 5875
5878 5880 5879 5878 5878 5877 5875 5875 5875 5873 5872 5869 5865 5863 5862 5859 5857 5855 5853 5852 5851 5850 5849 5849 5850 5850 5852 5853 5855 5856 5859 5861 5863 5865 5866 5868 5869 5870 5871 5872 5872 5872 5872 5872
5875 5876 5875 5874 5873 5873 5872 5871 5870 5869 5868 5866 5865 5862 5859 5858 5856 5855 5853 5852 5851 5851 5851 5850 5851 5851 5852 5853 5854 5856 5858 5860 5862 5863 5865 5866 5867 5868 5869 5869 5869 5869 5870 5870
5870 5871 5871 5870 5869 5869 5869 5867 5866 5866 5865 5865 5864 5861 5859 5856 5855 5854 5853 5852 5852 5851 5851 5851 5852 5852 5853 5853 5854 5856 5857 5859 5860 5861 5862 5864 5865 5865 5866 5866 5866 5866 5866 5866
5865 5867 5867 5866 5866 5865 5864 5864 5863 5863 5862 5861 5861 5862 5855 5854 5853 5852 5852 5851 5851 5851 5851 5851 5851 5852 5852 5853 5854 5855 5856 5857 5858 5859 5860 5861 5862 5862 5862 5862 5862 5862 5862 5862
5861 5862 5862 5862 5861 5860 5860 5860 5859 5859 5858 5857 5857 5859 5852 5851 5850 5850 5849 5849 5849 5850 5850 5850 5850 5850 5851 5851 5852 5853 5854 5855 5856 5856 5857 5858 5858 5858 5858 5858 5858 5858 5857 5857
5856 5857 5858 5857 5858 5856 5855 5855 5855 5855 5854 5854 5854 5856 5849 5848 5847 5847 5847 5846 5847 5847 5847 5847 5848 5848 5849 5849 5850 5850 5851 5851 5852 5853 5853 5853 5854 5854 5854 5853 5853 5852 5852 5851
5851 5852 5854 5854 5853 5851 5851 5851 5850 5850 5850 5850 5850 5849 5846 5845 5844 5844 5844 5843 5844 5844 5844 5844 5845 5845 5845 5846 5846 5847 5847 5847 5848 5848 5848 5848 5848 5848 5848 5848 5847 5846 5846 5845
5845 5846 5846 5847 5846 5847 5846 5846 5846 5846 5846 5846 5846 5844 5843 5841 5841 5840 5840 5840 5840 5840 5841 5841 5841 5841 5841 5842 5842 5842 5842 5842 5843 5843 5843 5843 5843 5843 5842 5841 5841 5840 5839 5838
5838 5840 5840 5841 5841 5841 5842 5842 5841 5841 5841 5841 5840 5840 5838 5837 5837 5836 5836 5836 5836 5836 5836 5837 5837 5837 5837 5837 5837 5837 5837 5837 5837 5837 5837 5837 5836 5836 5835 5834 5833 5832 5831 5830
5832 5834 5835 5836 5836 5836 5837 5837 5836 5836 5836 5836 5835 5835 5834 5833 5832 5832 5832 5832 5832 5832 5832 5832 5832 5832 5832 5831 5831 5831 5832 5831 5831 5831 5831 5830 5829 5828 5828 5826 5825 5824 5822 5821
5826 5828 5829 5831 5831 5832 5834 5831 5831 5831 5831 5830 5829 5829 5829 5828 5828 5827 5827 5827 5826 5826 5826 5826 5826 5826 5826 5826 5825 5825 5825 5824 5824 5823 5823 5823 5822 5821 5819 5818 5816 5815 5813 5812
5819 5821 5823 5825 5825 5826 5826 5826 5826 5826 5825 5825 5824 5824 5823 5823 5822 5821 5821 5821 5821 5820 5820 5820 5820 5819 5819 5819 5818 5818 5817 5816 5815 5815 5815 5814 5813 5812 5810 5809 5807 5805 5803 5801
5812 5814 5817 5818 5819 5820 5820 5819 5819 5821 5819 5819 5818 5818 5818 5817 5817 5816 5815 5814 5814 5814 5813 5813 5812 5812 5811 5811 5810 5810 5808 5807 5807 5806 5805 5804 5803 5802 5800 5798 5796 5794 5792 5790
5805 5807 5809 5811 5812 5814 5812 5813 5814 5816 5815 5813 5812 5812 5811 5811 5811 5810 5809 5808 5807 5807 5806 5805 5804 5804 5803 5802 5802 5801 5800 5799 5798 5797 5795 5794 5793 5791 5790 5788 5786 5783 5781 5778
5798 5800 5802 5804 5806 5808 5806 5806 5808 5808 5807 5806 5806 5805 5805 5804 5804 5803 5802 5802 5801 5800 5799 5798 5797 5796 5795 5794 5793 5792 5790 5790 5788 5787 5786 5784 5783 5781 5779 5776 5774 5771 5768 5765
5790 5793 5795 5797 5799 5798 5798 5799 5800 5800 5800 5799 5799 5799 5798 5798 5797 5796 5795 5794 5793 5792 5791 5790 5789 5788 5786 5785 5784 5783 5781 5780 5779 5777 5775 5773 5771 5769 5767 5764 5761 5758 5755 5752
5783 5785 5787 5789 5790 5790 5791 5791 5792 5793 5793 5793 5792 5792 5791 5790 5790 5789 5788 5787 5786 5785 5784 5782 5781 5780 5778 5777 5776 5774 5773 5771 5769 5768 5765 5763 5760 5758 5755 5752 5748 5745 5741 5737
5776 5779 5780 5782 5783 5783 5784 5785 5785 5786 5786 5785 5785 5784 5784 5783 5782 5781 5780 5779 5778 5777 5776 5774 5773 5772 5770 5769 5767 5766 5764 5762 5759 5757 5754 5752 5749 5746 5742 5738 5734 5730 5726 5721
5770 5772 5774 5775 5776 5777 5778 5778 5778 5778 5778 5778 5778 5777 5776 5775 5774 5774 5773 5772 5771 5769 5768 5766 5765 5763 5762 5760 5758 5756 5754 5751 5749 5746 5743 5740 5736 5732 5728 5724 5720 5715 5710 5705